Regional Weather Roundup
Issued by NWS Northern Indiana

Home | Current Version | Previous Version | Text Only | Print | Product List | Glossary On
Versions: 1 2 3 4 5 6 7 8 9 10 11 12 13 14 15 16 17 18 19 20 21 22 23 24 25 26 27 28 29 30 31 32 33 34 35 36 37 38 39 40 41 42 43 44 45 46 47 48 49 50
000
ASUS43 KIWX 240910
RWRIWX

KIWX WEATHER ROUNDUP
NATIONAL WEATHER SERVICE NORTHERN INDIANA
500 AM EDT SAT JUN 24 2017

NOTE: "FAIR" INDICATES FEW OR NO CLOUDS BELOW 12,000 FEET WITH NO
SIGNIFICANT WEATHER AND/OR OBSTRUCTIONS TO VISIBILITY.

* THESE STATIONS ARE NOT UNDER NWS QUALITY CONTROL. THEY ALSO MAY NOT
  REPORT WEATHER SUCH AS PRECIPITATION OR FOG.

INZ001>027-241000-
NORTHERN INDIANA

CITY           SKY/WX    TMP DP  RH WIND       PRES   REMARKS
GARY*          PTCLDY    64  54  69 W7        29.89R
VALPARAISO     CLEAR     61  56  83 W7        29.88S
MICHIGAN CITY* CLEAR     63  55  77 W6        29.87S
LAPORTE*       CLEAR     62  55  77 W3        29.88S
KNOX*          CLEAR     59  52  77 SW6       29.88S
SOUTH BEND     CLEAR     60  55  83 W7        29.87R
GOSHEN         CLEAR     61  54  77 W8        29.86R
MONTICELLO*    CLEAR     60  57  89 W7        29.89S
LOGANSPORT*    MOCLDY    63  54  72 NW7       29.89F
ROCHESTER*     PTCLDY    63  59  88 W6        29.88S
WARSAW*        PTCLDY    61  55  82 NW9       29.87R
AUBURN*        MOCLDY    63  54  72 W7        29.85R
FORT WAYNE     CLOUDY    63  56  78 W9        29.85R
HUNTINGTON*    CLOUDY    62  58  88 W3        29.86R
PERU/GRISSOM   PTCLDY    62  58  85 W7        29.87R
MARION*        CLOUDY    63  57  82 W9        29.89R

$$
INZ028>050-241000-
CENTRAL INDIANA

CITY           SKY/WX    TMP DP  RH WIND       PRES   REMARKS
LAFAYETTE      CLEAR     59  57  93 W7        29.91R
KOKOMO*        CLOUDY    61  58  90 W8        29.90R
MUNCIE*        MOCLDY    65  58  78 W10       29.88R
INDIANAPOLIS   PTCLDY    63  57  81 W10       29.91R

$$
MIZ043>046-050>051-056>058-064>065-071>073-077>080-241000-
SOUTHWEST LOWER MICHIGAN

CITY           SKY/WX    TMP DP  RH WIND       PRES   REMARKS
BATTLE CREEK   CLEAR     60  55  83 W9        29.83R
BENTON HARBOR  CLEAR     65  56  72 W10G20    29.85R
COLDWATER*     PTCLDY    60  55  85 W7        29.83R
HILLSDALE*     CLEAR     59  54  82 W8        29.82R
HOLLAND        CLEAR     64  56  75 W9        29.83R
GRAND RAPIDS   CLOUDY    62  57  83 W9        29.81R
KALAMAZOO      CLEAR     61  54  77 W7        29.84R
STURGIS*       CLEAR     61  55  83 W5        29.84R
THREE RIVERS*  FAIR      59  54  85 W6        29.85R

$$
OHZ001>008-015>018-024>025-241000-
NORTHWEST OHIO

CITY           SKY/WX    TMP DP  RH WIND       PRES   REMARKS
WAUSEON*       FAIR      59  55  88 W7        29.81R
DEFIANCE       CLEAR     60  53  77 VRB3      29.82R
FINDLAY        CLEAR     62  54  74 SW7       29.80S
TOLEDO EXPRESS CLEAR     60  55  83 W8        29.79R
TOLEDO METCALF CLEAR     63  55  75 W8        29.79R

$$
AND FOR LAKE MICHIGAN COASTAL AND OPEN LAKE BUOY OBSERVATIONS

STATION/POSITION TEMP    WIND        PRES    VSBY  WAVE
                 AIR SEA DIR/SP/G                  HT/PER
                 (F)     (DEG/KT/KT) (MB)    (MI)  (FT/S)
CALUMET HARBOR    64     250/  2/  6 1011.3R
MICHIGAN CITY     66     270/ 19/ 21   N/A
BURNS HARBOR      66     280/ 11/ 17 1012.2
SOUTH LAKE BUOY   63 61  310/ 14/ 17 1010.1R         2/ 4
4 MI NW BRIDGMAN  66 68  320/ 16/ 21 1011.1          4/ 4
MICHIGAN CITY     67 68  300/ 14/ 19   N/A           3/ 4

$$
&&




USA.gov is the U.S. government's official web portal to all federal, state and local government web resources and services.